Content
SEND FEEDBACK

Daily
Averages
Monthly
Summary
United States of America

DORSET, VERMONT


Home > North America > United States > Vermont
Elevation: 980 feet     Latitude: 43 15N     Longitude: 073 06W

WEATHER
 
SELECT A DAY
Number of Records: 462,075;   Date Range: 1/1/95 - 10/19/14
 
SHARE

PRINT THIS DATA

[ ← Previous Day ]
WEATHER ALMANAC - AUGUST 25, 2014
[ Next Day → ]
[ °C ]   °F
Weather ElementAverageHighLow
Temperature67.6 °F80.6 °F (2:35 pm)55.4 °F (11:15 pm)
Dewpoint57.8 °F62.6 °F (1:15 am)51.8 °F (2:35 pm)
Humidity74 %94 % (12:15 am)42 % (1:55 pm)
Barometer30.18 in30.23 in (9:55 am)30.13 in (6:35 am)
Wind Speed5.8 mph11.5 mph (11:35 am)
Weather ElementAverage
Visibility10 mi
Wind DirectionSSE (172.6 °)

Weather ElementTotal
Precipitation---
Cooling Degree Days3 (Base 65)
Growing Degree Days18 (Base 50)
Averaged from 69 records on August 25, 2014
WEATHER CONDITIONS BREAKOUT
WIND DIRECTION BREAKOUT
WEATHER BY HOUR - AUGUST 25, 2014
[ °C ]   °F
Local TimeTemperatureDewpointHumidityBarometerVisibilityWind DirectionWind SpeedGust SpeedPrecipitationEventsConditions
12:15 AM60.8 °F57.2 °F88 %30.19 in10.0 miSE (140°)8.1 mphClear
12:35 AM59.0 °F57.2 °F94 %30.19 in10.0 miSE (130°)6.9 mphClear
12:55 AM59.0 °F55.4 °F88 %30.19 in10.0 miSE (130°)5.8 mphClear
1:15 AM59.0 °F57.2 °F94 %30.19 in10.0 miESE (120°)6.9 mphClear
1:35 AM59.0 °F55.4 °F88 %30.19 in10.0 miSSE (150°)8.1 mphClear
1:55 AM57.2 °F55.4 °F94 %30.18 in10.0 miSE (130°)9.2 mphClear
2:15 AM59.0 °F55.4 °F88 %30.18 in10.0 miSE (130°)10.4 mphClear
2:35 AM59.0 °F55.4 °F88 %30.17 in10.0 miSE (140°)6.9 mphClear
2:55 AM57.2 °F55.4 °F94 %30.18 in10.0 miSE (140°)6.9 mphClear
3:15 AM57.2 °F55.4 °F94 %30.17 in10.0 miSE (130°)10.4 mphClear
3:35 AM57.2 °F55.4 °F94 %30.17 in10.0 miSE (130°)9.2 mphClear
3:55 AM57.2 °F55.4 °F94 %30.18 in10.0 miSE (130°)5.8 mphClear
4:15 AM57.2 °F55.4 °F94 %30.18 in10.0 miSE (130°)5.8 mphClear
4:35 AM57.2 °F53.6 °F88 %30.18 in10.0 miSE (140°)5.8 mphClear
5:15 AM55.4 °F53.6 °F94 %30.19 in10.0 miSE (140°)4.6 mphClear
5:35 AM55.4 °F53.6 °F94 %30.19 in10.0 miSE (130°)5.8 mphClear
5:55 AM55.4 °F51.8 °F88 %30.20 in10.0 miSSE (150°)6.9 mphClear
6:15 AM55.4 °F53.6 °F94 %30.21 in10.0 miSE (130°)5.8 mphClear
6:35 AM55.4 °F53.6 °F94 %30.20 in10.0 miSE (130°)6.9 mphClear
6:55 AM55.4 °F53.6 °F94 %30.20 in10.0 miSSE (150°)4.6 mphClear
7:15 AM55.4 °F53.6 °F94 %30.21 in10.0 miSE (140°)5.8 mphClear
7:35 AM57.2 °F53.6 °F88 %30.21 in10.0 miSSE (150°)4.6 mphClear
7:55 AM59.0 °F55.4 °F88 %30.21 in10.0 miEast (100°)3.5 mphClear
8:15 AM60.8 °F55.4 °F82 %30.22 in10.0 miSE (130°)3.5 mphClear
8:35 AM62.6 °F57.2 °F82 %30.22 in10.0 miCalmClear
8:55 AM62.6 °F57.2 °F82 %30.22 in10.0 miCalmClear
9:15 AM64.4 °F59.0 °F83 %30.22 in10.0 miCalmClear
9:35 AM66.2 °F60.8 °F83 %30.22 in10.0 miCalmClear
9:55 AM68.0 °F62.6 °F83 %30.23 in10.0 miCalmClear
10:35 AM71.6 °F62.6 °F73 %30.22 in10.0 miNNE (20°)4.6 mphClear
10:55 AM73.4 °F62.6 °F69 %30.22 in10.0 miNNW (340°)3.5 mphClear
11:15 AM73.4 °F60.8 °F65 %30.22 in10.0 miNorth (350°)4.6 mphClear
11:35 AM73.4 °F62.6 °F69 %30.22 in10.0 miNNE (20°)4.6 mphClear
11:55 AM75.2 °F62.6 °F65 %30.21 in10.0 miCalmClear
12:15 PM77.0 °F62.6 °F61 %30.20 in10.0 miNW (320°)6.9 mphClear
12:35 PM77.0 °F62.6 °F61 %30.20 in10.0 miNorth (360°)4.6 mphClear
12:55 PM78.8 °F60.8 °F54 %30.19 in10.0 miNW (310°)4.6 mphClear
1:15 PM78.8 °F60.8 °F54 %30.19 in10.0 miNorth (350°)5.8 mphClear
1:35 PM78.8 °F57.2 °F47 %30.18 in10.0 miNW (310°)6.9 mphClear
1:55 PM80.6 °F55.4 °F42 %30.18 in10.0 miNorth (10°)5.8 mphClear
2:15 PM80.6 °F59.0 °F48 %30.17 in10.0 miNorth (350°)8.1 mphClear
2:35 PM80.6 °F57.2 °F45 %30.16 in10.0 miNNW (330°)4.6 mphClear
2:55 PM80.6 °F55.4 °F42 %30.16 in10.0 miNorth (360°)8.1 mphClear
3:15 PM80.6 °F57.2 °F45 %30.16 in10.0 miNW (320°)6.9 mphClear
3:35 PM80.6 °F55.4 °F42 %30.15 in10.0 miNW (310°)5.8 mphClear
3:55 PM80.6 °F55.4 °F42 %30.15 in10.0 miNW (320°)3.5 mphClear
4:15 PM80.6 °F55.4 °F42 %30.15 in10.0 miNW (310°)4.6 mphClear
4:35 PM80.6 °F55.4 °F42 %30.15 in10.0 miNNW (330°)3.5 mphClear
4:55 PM80.6 °F57.2 °F45 %30.14 in10.0 miNorth (350°)5.8 mphClear
5:15 PM80.6 °F55.4 °F42 %30.14 in10.0 miNorth (360°)3.5 mphClear
5:35 PM80.6 °F57.2 °F45 %30.14 in10.0 miNW (320°)3.5 mphClear
5:55 PM80.6 °F57.2 °F45 %30.14 in10.0 miNW (320°)3.5 mphClear
6:15 PM78.8 °F57.2 °F47 %30.13 in10.0 miNNW (330°)3.5 mphClear
6:35 PM75.2 °F62.6 °F65 %30.14 in10.0 miCalmClear
6:55 PM73.4 °F62.6 °F69 %30.14 in10.0 miSSE (150°)6.9 mphClear
7:15 PM71.6 °F62.6 °F73 %30.15 in10.0 miSSE (150°)5.8 mphClear
7:35 PM71.6 °F62.6 °F73 %30.15 in10.0 miESE (120°)6.9 mphClear
7:55 PM69.8 °F62.6 °F78 %30.15 in10.0 miSE (140°)8.1 mphClear
8:15 PM68.0 °F62.6 °F83 %30.15 in10.0 miSE (130°)10.4 mphClear
8:35 PM68.0 °F60.8 °F78 %30.15 in10.0 miSE (130°)10.4 mphClear
8:55 PM66.2 °F60.8 °F83 %30.15 in10.0 miSE (130°)11.5 mphClear
9:15 PM66.2 °F60.8 °F83 %30.15 in10.0 miSE (130°)10.4 mphClear
9:35 PM66.2 °F60.8 °F83 %30.15 in10.0 miSE (140°)6.9 mphClear
9:55 PM64.4 °F60.8 °F88 %30.16 in10.0 miSE (130°)6.9 mphClear
10:15 PM64.4 °F60.8 °F88 %30.16 in10.0 miSE (130°)6.9 mphClear
10:35 PM64.4 °F59.0 °F83 %30.16 in10.0 miESE (120°)8.1 mphClear
11:15 PM62.6 °F57.2 °F82 %30.16 in10.0 miSSE (150°)9.2 mphClear
11:35 PM62.6 °F57.2 °F82 %30.16 in10.0 miESE (120°)10.4 mphClear
11:55 PM62.6 °F57.2 °F82 %30.17 in10.0 miESE (120°)6.9 mphClear
Hourly data recorded from KRUT, located miles away from Dorset, Vermont







STORIES FROM OUR PARTNERS